User: anonymous   Login
Location: Unspecified
(0.0000°N, 0.0000°E)
Time: 06:42:49
(UTC+00:00)
Language:

DNEPR OBJECT S - Orbit

View from above orbital plane
View from above orbital plane
View from above satellite
View from above satellite

Ground track
Ground track

The orbit data is extracted from the following two-line orbital elements,

1 39432U 13066S   18173.15036714  .00000315  00000-0  37837-4 0  9995
2 39432  97.5978 225.9183 0033770  77.4864 283.0129 14.90112827248963
Epoch (UTC): 22 June 2018 03:36:31
Eccentricity: 0.0033770
inclination: 97.5978°
perigee height: 574 km
apogee height: 621 km
right ascension of ascending node: 225.9183°
argument of perigee: 77.4864°
revolutions per day: 14.90112827
mean anomaly at epoch: 283.0129°
orbit number at epoch: 24896

The dashed part of the orbit path shows where the satellite is in the earth's shadow,  

DLR